DW7854 Weather Reports


Display with metric or nautical units.
time (UTC)temp
F
wind
direction
speed
MPH
gust
MPH
rain 1hr
in
rain 24hr
in
rain mn
in
humidity
%
barometer
mb
20260508180835 74 187 3.0 9.0 0.00 0.00 0.00 64 1012.0
20260508180109 73 144 4.0 9.0 0.00 0.00 0.00 66 1012.6
20260508175935 74 165 4.0 9.0 0.00 0.00 0.00 65 1012.5
20260508175035 74 167 5.0 11.0 0.00 0.00 0.00 65 1012.6
20260508174622 72 159 3.0 11.0 0.00 0.00 0.00 66 1013.0
20260508174135 73 158 4.0 10.0 0.00 0.00 0.00 67 1012.7
20260508173004 71 101 3.0 9.0 0.00 0.00 0.00 66 1013.1
20260508172336 71 174 4.0 9.0 0.00 0.00 0.00 67 1013.1
20260508171509 69 152 3.0 8.0 0.00 0.00 0.00 69 1013.4
20260508171435 70 136 3.0 8.0 0.00 0.00 0.00 69 1013.1
20260508170535 69 122 3.0 8.0 0.00 0.00 0.00 69 1013.1
20260508170106 69 140 2.0 8.0 0.00 0.00 0.00 72 1013.5
20260508164735 69 153 2.0 8.0 0.00 0.00 0.00 74 1013.6
20260508164604 68 184 2.0 6.0 0.00 0.00 0.00 75 1013.9
20260508163835 68 161 2.0 6.0 0.00 0.00 0.00 71 1013.5
20260508163106 67 189 2.0 6.0 0.00 0.00 0.00 74 1013.8
20260508162935 67 159 2.0 6.0 0.00 0.00 0.00 74 1013.5
20260508162035 67 167 2.0 6.0 0.00 0.00 0.00 73 1014.0
20260508161605 66 160 1.0 5.0 0.00 0.00 0.00 76 1014.1
20260508161135 66 127 2.0 5.0 0.00 0.00 0.00 75 1013.7
20260508160235 66 149 4.0 8.0 0.00 0.00 0.00 73 1013.8
20260508160105 66 142 4.0 8.0 0.00 0.00 0.00 73 1014.1
20260508155335 66 142 3.0 7.0 0.00 0.00 0.00 73 1014.0
20260508154607 66 164 2.0 6.0 0.00 0.00 0.00 77 1014.5
20260508154435 66 134 3.0 7.0 0.00 0.00 0.00 76 1014.1
20260508153535 66 152 3.0 5.0 0.00 0.00 0.00 76 1014.0
20260508153104 65 191 3.0 6.0 0.00 0.00 0.00 77 1014.3
20260508152635 65 145 2.0 5.0 0.00 0.00 0.00 80 1014.0
20260508151735 64 125 2.0 4.0 0.00 0.00 0.00 80 1013.8
20260508151503 63 106 1.0 4.0 0.00 0.00 0.00 80 1014.0
20260508150835 63 106 2.0 5.0 0.00 0.00 0.00 81 1013.8
20260508150010 62 28 0.0 5.0 0.00 0.00 0.00 82 1014.2
20260508145935 63 98 2.0 5.0 0.00 0.00 0.00 82 1013.9
20260508144505 61 138 1.0 4.0 0.00 0.00 0.00 83 1014.6
20260508144135 62 102 2.0 3.0 0.00 0.00 0.00 84 1014.2
20260508143235 61 99 1.0 3.0 0.00 0.00 0.00 84 1014.3
20260508143104 60 65 1.0 3.0 0.00 0.00 0.00 85 1014.6
20260508142335 60 18 1.0 3.0 0.00 0.00 0.00 85 1014.5
20260508141509 59 22 1.0 3.0 0.00 0.00 0.00 87 1014.6
20260508140535 59 135 1.0 5.0 0.00 0.00 0.00 90 1014.2
20260508135635 58 123 1.0 3.0 0.00 0.00 0.00 92 1014.6
20260508134617 57 133 1.0 3.0 0.00 0.00 0.00 93 1015.0
20260508133835 58 167 2.0 3.0 0.00 0.00 0.00 94 1015.1
20260508133003 57 148 2.0 3.0 0.00 0.00 0.00 94 1015.5
20260508132935 57 132 1.0 3.0 0.00 0.00 0.00 94 1015.2
20260508131605 56 336 0.0 3.0 0.00 0.00 0.00 94 1015.4
20260508131135 56 321 1.0 2.0 0.00 0.00 0.00 94 1014.6
20260508130235 56 226 1.0 2.0 0.00 0.00 0.00 94 1014.7
20260508130005 55 158 0.0 2.0 0.00 0.00 0.00 94 1015.0
20260508125335 56 334 0.0 2.0 0.00 0.00 0.00 94 1014.9
20260508124511 55 13 0.0 2.0 0.00 0.00 0.00 94 1015.3
20260508123535 55 26 0.0 1.0 0.00 0.00 0.00 95 1014.6
20260508123009 54 45 0.0 3.0 0.00 0.00 0.00 94 1014.9
20260508122635 55 9 1.0 3.0 0.00 0.00 0.00 94 1014.5
20260508121505 54 236 0.0 1.0 0.00 0.00 0.00 94 1014.7
20260508120835 54 188 1.0 2.0 0.00 0.00 0.00 94 1014.3
20260508120004 54 173 0.0 2.0 0.00 0.00 0.00 94 1014.6
20260508115935 54 315 1.0 3.0 0.00 0.00 0.00 94 1014.2
20260508114504 54 355 0.0 3.0 0.00 0.00 0.00 95 1014.4
20260508114135 54 7 1.0 4.0 0.00 0.00 0.00 95 1013.7
20260508113235 54 12 1.0 4.0 0.00 0.00 0.00 95 1013.6
20260508113106 54 5 2.0 4.0 0.00 0.00 0.00 95 1014.0
20260508112335 54 17 1.0 4.0 0.00 0.00 0.00 95 1014.1
20260508111604 54 138 0.0 2.0 0.00 0.00 0.00 95 1014.8
20260508111435 54 8 0.0 2.0 0.00 0.00 0.00 95 1014.5
20260508105635 54 6 1.0 2.0 0.00 0.00 0.00 95 1014.7
20260508104735 54 24 1.0 2.0 0.00 0.00 0.00 95 1014.7
20260508104607 54 5 0.0 2.0 0.00 0.00 0.00 95 1015.1
20260508103004 54 33 1.0 2.0 0.00 0.00 0.00 95 1014.5
20260508102935 54 30 1.0 2.0 0.00 0.00 0.00 95 1014.1
20260508102035 54 21 1.0 3.0 0.00 0.00 0.00 95 1014.1
20260508101508 53 355 1.0 5.0 0.00 0.00 0.00 96 1014.5
20260508101135 54 9 1.0 5.0 0.00 0.00 0.00 95 1014.0
20260508100235 54 1 0.0 1.0 0.00 0.00 0.00 95 1014.0
20260508100105 53 360 0.0 0.0 0.00 0.00 0.00 95 1014.4
20260508095335 54 3 0.0 2.0 0.00 0.00 0.00 95 1014.3
20260508094503 53 360 0.0 2.0 0.00 0.00 0.00 95 1014.4
20260508093535 53 47 0.0 3.0 0.00 0.00 0.00 95 1013.9
20260508093104 53 120 0.0 0.0 0.00 0.00 0.00 95 1014.4
20260508092635 53 0 0.0 0.0 0.00 0.00 0.00 95 1014.2
20260508091735 53 0 0.0 0.0 0.00 0.00 0.00 95 1014.1
20260508091605 52 120 0.0 0.0 0.00 0.00 0.00 95 1014.5
20260508090835 53 0 0.0 0.0 0.00 0.00 0.00 95 1013.8
20260508090106 52 120 0.0 0.0 0.00 0.00 0.00 95 1014.3
20260508085935 52 0 0.0 0.0 0.00 0.00 0.00 95 1013.9
20260508085035 52 0 0.0 0.0 0.00 0.00 0.00 94 1014.0
20260508084504 52 120 0.0 0.0 0.00 0.00 0.00 94 1014.5
20260508083235 52 0 0.0 0.0 0.00 0.00 0.00 94 1014.3
20260508083104 52 120 0.0 0.0 0.00 0.00 0.00 94 1014.7
20260508082335 52 0 0.0 0.0 0.00 0.00 0.00 94 1014.2
20260508081508 52 120 0.0 0.0 0.00 0.00 0.00 94 1014.5
20260508081435 52 0 0.0 0.0 0.00 0.00 0.00 94 1014.0
20260508080535 52 0 0.0 0.0 0.00 0.00 0.00 94 1014.0
20260508080010 52 120 0.0 0.0 0.00 0.00 0.00 93 1014.5
20260508075635 53 0 0.0 0.0 0.00 0.00 0.00 93 1014.2
20260508074735 53 0 0.0 0.0 0.00 0.00 0.00 94 1014.3
20260508074503 52 120 0.0 0.0 0.00 0.00 0.00 94 1014.7
20260508073835 53 0 0.0 0.0 0.00 0.00 0.00 94 1014.4
20260508073004 52 120 0.0 0.0 0.00 0.00 0.00 93 1014.7
20260508072935 53 0 0.0 0.0 0.00 0.00 0.00 93 1014.2
20260508072035 53 0 0.0 0.0 0.00 0.00 0.00 93 1014.3
20260508071608 53 120 0.0 0.0 0.00 0.00 0.00 93 1014.6
20260508070235 54 0 0.0 0.0 0.00 0.00 0.00 93 1014.3
20260508070002 53 120 0.0 0.0 0.00 0.00 0.00 93 1014.8
20260508064509 53 120 0.0 0.0 0.00 0.00 0.00 93 1015.1
20260508064435 54 0 0.0 0.0 0.00 0.00 0.00 93 1014.8
20260508063012 54 120 0.0 0.0 0.00 0.00 0.00 93 1015.1
20260508062635 54 0 0.0 0.0 0.00 0.00 0.00 92 1014.8
20260508061735 54 0 0.0 0.0 0.00 0.00 0.00 92 1014.6
20260508061603 54 120 0.0 0.0 0.00 0.00 0.00 92 1015.0
20260508060835 54 0 0.0 0.0 0.00 0.00 0.00 92 1014.8
20260508060008 54 120 0.0 0.0 0.00 0.00 0.00 92 1015.0
20260508055035 55 0 0.0 0.0 0.00 0.00 0.00 92 1014.6
20260508054603 55 120 0.0 0.0 0.00 0.00 0.00 92 1015.0
20260508053235 55 0 0.0 0.0 0.00 0.00 0.00 91 1014.6
20260508053005 55 120 0.0 0.0 0.00 0.00 0.00 91 1014.9
20260508052335 55 0 0.0 0.0 0.00 0.00 0.00 91 1014.6
20260508051604 55 120 0.0 0.0 0.00 0.00 0.00 91 1015.2
20260508051435 56 0 0.0 0.0 0.00 0.00 0.00 91 1014.8
20260508050535 56 0 0.0 0.0 0.00 0.00 0.00 91 1014.6
20260508050009 55 120 0.0 0.0 0.00 0.00 0.00 91 1014.9
20260508044735 56 0 0.0 0.0 0.00 0.00 0.00 90 1014.8
20260508044503 56 120 0.0 0.0 0.00 0.00 0.00 90 1015.1
20260508043835 56 0 0.0 0.0 0.00 0.00 0.00 90 1014.8
20260508043002 56 120 0.0 0.0 0.00 0.00 0.00 90 1015.2
20260508042035 57 0 0.0 0.0 0.00 0.00 0.00 89 1014.9
20260508041602 57 120 0.0 0.0 0.00 0.00 0.00 89 1015.2
20260508040235 57 0 0.0 0.0 0.00 0.00 0.00 89 1015.0
20260508040105 57 120 0.0 0.0 0.00 0.00 0.00 89 1015.4
20260508035335 57 0 0.0 0.0 0.00 0.00 0.00 89 1014.8
20260508034504 57 120 0.0 0.0 0.00 0.00 0.00 88 1015.1
20260508033535 58 0 0.0 0.0 0.00 0.00 0.00 88 1014.9
20260508033105 58 120 0.0 0.0 0.00 0.00 0.00 88 1015.2
20260508032635 58 0 0.0 0.0 0.00 0.00 0.00 87 1014.7
20260508031735 58 0 0.0 0.0 0.00 0.00 0.00 87 1014.6
20260508031604 58 120 0.0 0.0 0.00 0.00 0.00 87 1014.9
20260508030835 59 0 0.0 0.0 0.00 0.00 0.00 86 1014.6
20260508030105 59 120 0.0 0.0 0.00 0.00 0.00 86 1015.0
20260508025935 59 0 0.0 0.0 0.00 0.00 0.00 85 1014.6
20260508025035 59 0 0.0 0.0 0.00 0.00 0.00 85 1014.7
20260508024507 59 120 0.0 0.0 0.00 0.00 0.00 85 1015.0
20260508024135 60 0 0.0 0.0 0.00 0.00 0.00 85 1014.6
20260508023103 59 120 0.0 0.0 0.00 0.00 0.00 85 1014.7
20260508022335 60 0 0.0 0.0 0.00 0.00 0.00 84 1014.1
20260508021507 60 120 0.0 0.0 0.00 0.00 0.00 84 1014.5
20260508021435 60 0 0.0 0.0 0.00 0.00 0.00 84 1014.1
20260508020006 61 120 0.0 0.0 0.00 0.00 0.00 83 1014.6
20260508015635 61 0 0.0 0.0 0.00 0.00 0.00 83 1014.2
20260508014603 62 120 0.0 0.0 0.00 0.00 0.00 81 1014.6
20260508013835 62 120 0.0 1.0 0.00 0.00 0.00 81 1014.1
20260508013003 62 120 0.0 2.0 0.00 0.00 0.00 79 1014.4
20260508012935 63 120 0.0 2.0 0.00 0.00 0.00 79 1014.1
20260508012035 64 120 0.0 2.0 0.00 0.00 0.00 78 1014.1
20260508011603 63 120 0.0 1.0 0.00 0.00 0.00 77 1014.5
20260508010235 65 116 0.0 1.0 0.00 0.00 0.00 76 1014.0
20260508010106 65 120 0.0 1.0 0.00 0.00 0.00 75 1014.4
20260508005335 66 88 0.0 1.0 0.00 0.00 0.00 74 1013.9
20260508004604 66 125 0.0 1.0 0.00 0.00 0.00 72 1014.2
20260508004435 66 327 0.0 1.0 0.00 0.00 0.00 72 1013.8
20260508003535 67 0 0.0 0.0 0.00 0.00 0.00 73 1013.7
20260508003108 66 61 0.0 1.0 0.00 0.00 0.00 72 1014.0
20260508002634 67 321 0.0 1.0 0.00 0.00 0.00 72 1013.7
20260508001735 68 0 0.0 0.0 0.00 0.00 0.00 70 1013.8
20260508001504 67 355 0.0 0.0 0.00 0.00 0.00 71 1014.1
20260508000834 68 139 0.0 2.0 0.00 0.00 0.00 69 1013.8
20260508000104 68 109 0.0 2.0 0.00 0.00 0.00 68 1014.2
20260507235934 68 134 1.0 2.0 0.00 0.00 0.00 68 1013.8
20260507235035 68 133 1.0 3.0 0.00 0.00 0.00 67 1013.9
20260507234503 68 134 1.0 3.0 0.00 0.00 0.00 67 1014.4
20260507233234 69 177 1.0 3.0 0.00 0.00 0.00 67 1013.9
20260507233002 69 161 1.0 3.0 0.00 0.00 0.00 66 1014.3
20260507231502 69 180 1.0 4.0 0.00 0.00 0.00 63 1014.4
20260507230534 70 151 2.0 5.0 0.00 0.00 0.00 63 1013.9
20260507230008 70 158 2.0 5.0 0.00 0.02 0.00 63 1014.3
20260507225634 70 153 3.0 5.0 0.00 0.00 0.00 62 1014.0
20260507224734 70 138 3.0 6.0 0.00 0.00 0.00 62 1014.0
20260507224505 70 134 1.0 6.0 0.00 0.02 0.00 63 1014.3
20260507223834 71 154 4.0 6.0 0.00 0.00 0.00 61 1013.9
20260507223005 71 176 2.0 6.0 0.00 0.02 0.00 61 1014.6
20260507222934 71 151 3.0 6.0 0.00 0.00 0.00 61 1014.1
20260507222034 72 163 4.0 7.0 0.00 0.01 0.00 59 1014.1
20260507221603 72 153 3.0 7.0 0.00 0.02 0.00 59 1014.6
20260507221134 73 156 4.0 7.0 0.00 0.02 0.00 55 1014.1
20260507220235 74 158 2.0 4.0 0.00 0.02 0.00 51 1013.9
20260507215334 74 197 0.0 3.0 0.00 0.02 0.00 54 1014.0
20260507214608 73 236 0.0 2.0 0.00 0.02 0.00 51 1014.5
20260507214434 74 100 0.0 2.0 0.00 0.02 0.00 50 1014.1
20260507213534 74 67 1.0 3.0 0.00 0.02 0.00 49 1014.1
20260507213007 74 61 0.0 2.0 0.00 0.02 0.00 51 1014.6
20260507212634 74 60 1.0 3.0 0.00 0.02 0.00 52 1014.1
20260507211734 75 169 2.0 5.0 0.00 0.02 0.00 47 1014.1
20260507211616 75 40 1.0 5.0 0.00 0.02 0.00 48 1014.6
20260507210005 73 108 1.0 4.0 0.00 0.02 0.00 52 1014.8
20260507205934 74 96 2.0 5.0 0.00 0.02 0.00 51 1014.3
20260507205034 74 135 3.0 6.0 0.00 0.02 0.00 51 1014.4
20260507204607 74 153 2.0 6.0 0.00 0.02 0.00 54 1014.8
20260507204134 74 139 3.0 6.0 0.00 0.02 0.00 50 1014.6
20260507203005 73 104 1.0 5.0 0.00 0.02 0.00 52 1015.1
20260507202334 73 55 2.0 6.0 0.00 0.02 0.00 52 1014.6
20260507201506 72 325 0.0 6.0 0.00 0.02 0.00 55 1015.4
20260507201434 73 113 1.0 5.0 0.00 0.02 0.00 54 1015.0
20260507200111 72 28 1.0 6.0 0.00 0.02 0.00 52 1015.6
20260507195634 72 15 2.0 6.0 0.00 0.02 0.00 53 1015.1
20260507194506 70 88 1.0 5.0 0.00 0.02 0.00 58 1015.3
20260507193834 71 343 3.0 5.0 0.00 0.02 0.00 53 1015.0
20260507193105 70 360 2.0 7.0 0.00 0.02 0.00 54 1015.7
20260507192934 71 310 4.0 7.0 0.00 0.02 0.00 54 1015.3
20260507192034 71 343 3.0 6.0 0.00 0.02 0.00 52 1015.3
20260507191505 71 360 3.0 7.0 0.00 0.02 0.00 52 1015.9
20260507191134 71 242 2.0 7.0 0.00 0.02 0.00 53 1015.4
20260507190108 70 28 3.0 7.0 0.00 0.02 0.00 53 1015.9
20260507185334 70 91 4.0 8.0 0.00 0.02 0.00 55 1015.5
20260507184505 69 90 3.0 8.0 0.00 0.03 0.00 56 1016.3
20260507184434 70 340 3.0 7.0 0.00 0.02 0.00 56 1015.8
20260507183534 70 316 3.0 8.0 0.00 0.02 0.00 53 1015.9
20260507183107 70 278 1.0 5.0 0.00 0.03 0.00 55 1016.6
20260507182634 70 334 1.0 5.0 0.00 0.02 0.00 53 1016.1
20260507181734 69 312 3.0 8.0 0.00 0.02 0.00 55 1016.5
20260507181605 68 324 4.0 8.0 0.00 0.03 0.00 56 1017.0